{"data":{"norad_id":69838,"epoch":"2026-09-20T04:26:20.651136Z","epoch_age_seconds":44989,"freshness":"FRESH","line1":"1 69838U 26154V   26263.18496124  .00020113  00000+0  60462-3 0  9993","line2":"2 69838  53.1584 332.9216 0001194  76.3668 283.7467 15.34410547 13194","mean_motion":15.34410547,"eccentricity":0.0001194,"inclination_deg":53.1584,"raan_deg":332.9216,"arg_perigee_deg":76.3668,"mean_anomaly_deg":283.7467,"bstar":0.00060462,"rev_number":1319,"period_min":93.847113004757,"perigee_km":461.85509989822,"apogee_km":463.48868506175,"semimajor_km":6840.80889248,"source":"CELESTRAK","updated_at":"2026-09-20T09:00:44.296510Z"}}